N-1 DEB

基本信息
目录编号:
13132
目录名称:
N-1 DEB
国际标识:
1978-018C
轨道中心:
EARTH
物体状态:
在轨
发射日期:
1978-02-16 UTC
轨道信息
数据来源: 国际轨道数据
星历时间: 2026-07-13T13:33:06+0800
半长轴: 7506.136km
偏心率: 0.0206951
轨道倾角: 69.208°
近地点辐角: 96.245°
升交点赤经: 124.940°
平近点角: 51.269°
近地点: 972.658km
远地点: 1283.34km
周期: 107.866分钟
每日圈数: 13.349904
详细信息
发射场:
TNSTA
轨道高度:
LEO
数据来源:
AOE Integration Group
参考系:
TEME
时间系统:
UTC
历元类型:
SGP4
2D轨道图
3D轨道图
轨道高度分析图
轨道倾角分析图
轨道综合分析图
查看轨道综合分析图